[[{"header":{"parameterUnit":"m.s-1","parameterCategory":2,"la1":30.2992,"la2":30.254,"lo1":-89.0895,"lo2":-89.0443,"dy":0.0025,"dx":0.0025,"nx":19,"ny":19,"refTime":"2026-03-26T09:00:00:Z","depth":"0","parameterNumber":2,"parameterNumberName":"U-component_of_CURRENTS"},"data":[0,0,0,0.1508,0.1505,0.1324,0.1323,0.1209,0.1209,0,0,0,0,0,0,0,0,0,0,0,0.1582,0.1581,0.1509,0.1505,0.1324,0.1323,0.1209,0.1209,0,0,0,0,0,0,0,0,0,0,0,0.1582,0.1581,0.1581,0.1504,0.1324,0.1323,0.1209,0.1312,0,0,0,0,0,0,0,0,0,0,0.1472,0.1526,0.1582,0.1581,0.1503,0.1324,0.1322,0.1316,0.1306,0.1331,0,0.1317,0,0.1267,0.1206,0.1205,0,0,0,0.1487,0.1534,0.1491,0.158,0.1502,0.1324,0.14,0.1309,0.1298,0.1319,0.1315,0.1309,0.1265,0.1205,0.1205,0.1183,0.1183,0,0,0.1497,0.154,0.1498,0.1485,0.1476,0.1406,0.1395,0.1301,0.13,0.1314,0.1306,0.1263,0.1205,0.1205,0.1183,0.1183,0,0,0,0.1538,0.1548,0.1503,0.1491,0.1451,0.1401,0.1388,0.1303,0.129,0.1304,0.1262,0.1205,0.1204,0.1183,0.1183,0.1194,0,0,0,0.1543,0.1572,0.1508,0.1531,0.1453,0.1358,0.1393,0.1296,0.1283,0.1262,0.1205,0.1204,0.1183,0.1183,0.1194,0.1211,0,0,0,0.1586,0.1576,0.1563,0.1534,0.1462,0.1358,0.1336,0.1291,0.126,0.1205,0.1203,0.1182,0.1183,0.1193,0.121,0.1229,0,0,0,0.1625,0.1592,0.1564,0.1505,0.1464,0.1349,0.1336,0.1251,0.1203,0.1204,0.1183,0.1183,0.1193,0.1209,0.1228,0.1194,0.1196,0,0,0.1599,0.159,0.1549,0.1519,0.1413,0.1372,0.129,0.1232,0.1223,0.1219,0.1216,0.1194,0.1209,0.1229,0.1211,0.1212,0,0,0,0.1549,0.1519,0.1481,0.1413,0.1341,0.1297,0.123,0.1228,0.121,0.1198,0.1197,0.1206,0.1218,0.1196,0.1197,0.089,0.1184,0.1184,0.1184,0.1544,0.1488,0.1416,0.1347,0.13,0.1241,0.1225,0.1222,0.1202,0.1214,0.1217,0.1243,0.1219,0.1219,0.0903,0.1212,0.1212,0.1212,0.1212,0.1471,0.1414,0.1379,0.1295,0.1276,0.1229,0.123,0.1233,0.1254,0.1237,0.1248,0.121,0.1221,0.0883,0.1213,0.1213,0.1213,0.1213,0.1213,0.144,0.141,0.1372,0.1292,0.1262,0.1236,0.1243,0.1252,0.1272,0.1287,0.1258,0.1257,0.096,0.1284,0.1284,0.1284,0.1284,0.1284,0.1284,0.1425,0.1387,0.1355,0.1286,0.127,0.1252,0.1251,0.1264,0.1273,0.1279,0.1279,0.0921,0.1266,0.1263,0.1287,0.1286,0.1286,0.1286,0.1286,0.1354,0.1379,0.1326,0.1312,0.1276,0.1258,0.1258,0.125,0.1271,0.1275,0.0892,0.1276,0.1274,0.1272,0.1269,0.1294,0.1294,0.1294,0.1294,0.1341,0.1336,0.1314,0.131,0.1299,0.1269,0.1222,0.1173,0.0967,0.0795,0.0719,0.0632,0.0645,0.0599,0.0613,0.0594,0.0447,0.0445,0.0443,0.1308,0.1309,0.1302,0.1305,0.1311,0.1271,0.1177,0.0984,0.0611,0.0375,0.0291,0.0327,0.0166,0.0212,0.0118,0.0162,0.0126,0,0]},{"header":{"parameterUnit":"m.s-1","parameterCategory":2,"la1":30.2992,"la2":30.254,"lo1":-89.0895,"lo2":-89.0443,"dy":0.0025,"dx":0.0025,"nx":19,"ny":19,"refTime":"2026-03-26T09:00:00:Z","depth":"0","parameterNumber":3,"parameterNumberName":"V-component_of_CURRENTS"},"data":[0,0,0,-0.0095,-0.0093,0.0027,0.0028,0.0128,0.0128,0,0,0,0,0,0,0,0,0,0,0,-0.0143,-0.0143,-0.0095,-0.0093,0.0027,0.0028,0.0128,0.0128,0,0,0,0,0,0,0,0,0,0,0,-0.0143,-0.0143,-0.0142,-0.0092,0.0027,0.0028,0.0127,0.0052,0,0,0,0,0,0,0,0,0,0,-0.0057,-0.0098,-0.0143,-0.0142,-0.0092,0.0027,0.0028,0.0049,0.0057,0.0056,0,0.0068,0,0.0099,0.0133,0.0133,0,0,0,-0.0085,-0.0105,-0.0071,-0.0142,-0.0091,0.0026,-0.0025,0.0054,0.0063,0.0066,0.007,0.0074,0.0101,0.0134,0.0134,0.0201,0.0201,0,0,-0.0091,-0.0121,-0.0077,-0.0066,-0.0069,-0.0029,-0.0021,0.006,0.0062,0.007,0.0077,0.0102,0.0134,0.0135,0.02,0.0201,0,0,0,-0.0116,-0.0126,-0.0092,-0.0071,-0.0045,-0.0025,-0.0017,0.0059,0.007,0.0078,0.0103,0.0134,0.0135,0.02,0.0201,0.0209,0,0,0,-0.0119,-0.014,-0.0095,-0.0111,-0.0047,0.0015,-0.002,0.0064,0.0075,0.0103,0.0134,0.0136,0.02,0.02,0.0208,0.0203,0,0,0,-0.0147,-0.0143,-0.0131,-0.0114,-0.0064,0.0015,0.0032,0.0068,0.009,0.0133,0.0136,0.02,0.02,0.0208,0.0203,0.0231,0,0,0,-0.0177,-0.015,-0.0132,-0.0091,-0.0065,0.0019,0.0032,0.0093,0.013,0.0135,0.02,0.0201,0.0207,0.0202,0.0231,0.0332,0.0344,0,0,-0.0156,-0.0149,-0.0121,-0.0101,-0.0024,0.0003,0.0078,0.0126,0.0135,0.017,0.0173,0.0209,0.0203,0.0231,0.0359,0.0371,0,0,0,-0.0121,-0.0101,-0.0075,-0.0026,0.0028,0.0078,0.013,0.0145,0.0182,0.0159,0.0216,0.0212,0.023,0.029,0.0299,0.0358,0.0203,0.0203,0.0203,-0.0123,-0.0081,-0.0026,0.0031,0.0073,0.0135,0.0167,0.0194,0.0205,0.0215,0.0224,0.0258,0.0322,0.033,0.0389,0.0236,0.0236,0.0236,0.0236,-0.0071,-0.0021,0.001,0.0077,0.0116,0.0169,0.0211,0.0218,0.0252,0.0241,0.0259,0.0302,0.034,0.04,0.0236,0.0236,0.0236,0.0236,0.0236,-0.0048,-0.0015,0.0013,0.0091,0.0136,0.0182,0.0201,0.0224,0.0256,0.0268,0.0352,0.0354,0.0402,0.0287,0.0287,0.0287,0.0287,0.0288,0.0288,-0.0024,0.0009,0.0043,0.0109,0.013,0.0157,0.0192,0.0217,0.0315,0.0368,0.037,0.0433,0.0273,0.0267,0.0289,0.0289,0.0289,0.0289,0.0289,0.0049,0.0032,0.0073,0.009,0.012,0.0126,0.0163,0.0285,0.0346,0.0428,0.0575,0.0434,0.0443,0.0437,0.0435,0.05,0.05,0.05,0.05,0.0075,0.008,0.0079,0.007,0.0074,0.0098,0.0181,0.0354,0.0582,0.0716,0.0693,0.0712,0.0701,0.0725,0.0712,0.0715,0.085,0.085,0.085,0.0119,0.0099,0.0078,0.0046,0.0034,0.0061,0.0181,0.0462,0.0808,0.0865,0.0755,0.074,0.0764,0.0741,0.0773,0.0751,0.0752,0,0]}],[{"header":{"parameterUnit":"m.s-1","parameterCategory":2,"la1":30.2992,"la2":30.254,"lo1":-89.0895,"lo2":-89.0443,"dy":0.0025,"dx":0.0025,"nx":19,"ny":19,"refTime":"2026-03-26T09:00:00:Z","depth":"2","parameterNumber":2,"parameterNumberName":"U-component_of_CURRENTS"},"data":[0,0,0,0.0476,0.0477,0.0532,0.0532,0.0582,0.0583,0,0,0,0,0,0,0,0,0,0,0,0.0461,0.0461,0.0476,0.0477,0.0532,0.0532,0.0582,0.0583,0,0,0,0,0,0,0,0,0,0,0,0.0461,0.0461,0.0462,0.0477,0.0532,0.0533,0.0582,0.0547,0,0,0,0,0,0,0,0,0,0,0.0496,0.0493,0.0461,0.0462,0.0477,0.0532,0.0533,0.0545,0.0549,0.055,0,0.0562,0,0.057,0.0585,0.0585,0,0,0,0.048,0.049,0.0494,0.0462,0.0478,0.0532,0.0508,0.0547,0.0551,0.0555,0.0563,0.0565,0.0571,0.0586,0.0586,0.0609,0.0609,0,0,0.0477,0.0481,0.0492,0.0497,0.0496,0.0506,0.051,0.055,0.0562,0.0563,0.0566,0.0572,0.0586,0.0586,0.0609,0.0609,0,0,0,0.0466,0.0479,0.0483,0.0495,0.0505,0.0508,0.0512,0.056,0.0559,0.0567,0.0572,0.0586,0.0587,0.0609,0.0609,0.062,0,0,0,0.0465,0.0471,0.0481,0.0485,0.0504,0.0538,0.0521,0.0556,0.0561,0.0572,0.0586,0.0587,0.0609,0.0609,0.062,0.0633,0,0,0,0.0458,0.0471,0.0476,0.0485,0.0506,0.0538,0.054,0.0558,0.0564,0.0586,0.0587,0.0609,0.0609,0.0619,0.0632,0.0678,0,0,0,0.046,0.0463,0.0477,0.0484,0.0505,0.0524,0.054,0.0562,0.058,0.0586,0.0609,0.0609,0.0619,0.0632,0.0677,0.0542,0.0536,0,0,0.0458,0.0463,0.0464,0.0477,0.0496,0.0516,0.0533,0.0564,0.0578,0.0595,0.0596,0.062,0.0632,0.0678,0.0537,0.0532,0,0,0,0.0458,0.0463,0.047,0.0489,0.0506,0.0527,0.0553,0.0568,0.0599,0.0588,0.0615,0.0623,0.0651,0.0567,0.0563,0.0609,0.0609,0.0609,0.0609,0.0478,0.0477,0.0484,0.0489,0.0498,0.0538,0.0558,0.0584,0.0594,0.0609,0.0628,0.0664,0.0572,0.0568,0.0619,0.0619,0.0619,0.0619,0.0619,0.0475,0.0471,0.0481,0.0485,0.0509,0.0525,0.0558,0.0584,0.0644,0.0634,0.0661,0.0576,0.0563,0.062,0.062,0.0619,0.0619,0.0619,0.0619,0.048,0.0472,0.0479,0.0481,0.0505,0.0524,0.0566,0.0623,0.0654,0.0688,0.0625,0.0623,0.0693,0.0717,0.0717,0.0717,0.0718,0.0718,0.0718,0.0474,0.0471,0.0485,0.0484,0.0501,0.0532,0.0602,0.0634,0.0643,0.0634,0.0633,0.0698,0.0695,0.0699,0.0722,0.0721,0.0721,0.072,0.072,0.0454,0.0461,0.0468,0.0491,0.0521,0.0516,0.0575,0.0563,0.0618,0.0589,0.0602,0.0604,0.0597,0.0597,0.0598,0.0595,0.0595,0.0595,0.0595,0.0443,0.0448,0.0466,0.0493,0.0508,0.051,0.0445,0.0355,0.037,0.0334,0.0345,0.0262,0.0273,0.0244,0.0253,0.0246,0.0151,0.0151,0.015,0.043,0.0437,0.0454,0.0479,0.05,0.0458,0.0331,0.0097,0.0006,0.0133,0.0276,0.0564,0.0469,0.0475,0.0453,0.0459,0.0457,0,0]},{"header":{"parameterUnit":"m.s-1","parameterCategory":2,"la1":30.2992,"la2":30.254,"lo1":-89.0895,"lo2":-89.0443,"dy":0.0025,"dx":0.0025,"nx":19,"ny":19,"refTime":"2026-03-26T09:00:00:Z","depth":"2","parameterNumber":3,"parameterNumberName":"V-component_of_CURRENTS"},"data":[0,0,0,0.0125,0.0125,0.0137,0.0137,0.0163,0.0163,0,0,0,0,0,0,0,0,0,0,0,0.0121,0.0121,0.0125,0.0125,0.0137,0.0137,0.0163,0.0163,0,0,0,0,0,0,0,0,0,0,0,0.0121,0.0121,0.0121,0.0126,0.0137,0.0137,0.0163,0.0152,0,0,0,0,0,0,0,0,0,0,0.014,0.0127,0.0121,0.0121,0.0126,0.0137,0.0137,0.0151,0.0153,0.016,0,0.016,0,0.0161,0.0165,0.0165,0,0,0,0.0128,0.0126,0.0135,0.0121,0.0126,0.0137,0.0132,0.0152,0.0153,0.0162,0.016,0.0161,0.0162,0.0165,0.0165,0.0194,0.0194,0,0,0.0127,0.0119,0.0134,0.0136,0.0126,0.0132,0.0133,0.0153,0.015,0.016,0.0162,0.0162,0.0165,0.0165,0.0194,0.0194,0,0,0,0.0124,0.0118,0.0126,0.0135,0.0136,0.0132,0.0133,0.0149,0.0153,0.0162,0.0162,0.0165,0.0166,0.0194,0.0194,0.0199,0,0,0,0.0124,0.0116,0.0126,0.0121,0.0135,0.0139,0.0129,0.0152,0.0154,0.0162,0.0165,0.0166,0.0194,0.0194,0.0199,0.0199,0,0,0,0.0121,0.0116,0.0118,0.012,0.0125,0.0139,0.0144,0.0153,0.0155,0.0165,0.0166,0.0194,0.0194,0.0198,0.0198,0.0266,0,0,0,0.0112,0.0114,0.0118,0.012,0.0124,0.0143,0.0144,0.0155,0.0163,0.0165,0.0194,0.0194,0.0198,0.0198,0.0265,0.0387,0.0403,0,0,0.0111,0.0113,0.0117,0.012,0.0134,0.0141,0.0159,0.0168,0.0171,0.0188,0.0189,0.0199,0.0198,0.0266,0.0403,0.0419,0,0,0,0.0115,0.0117,0.0121,0.0128,0.0143,0.0156,0.017,0.0176,0.0189,0.0177,0.0203,0.0203,0.0246,0.0316,0.0329,0.0195,0.0195,0.0195,0.0195,0.0099,0.0112,0.012,0.0138,0.0151,0.0169,0.0183,0.0195,0.0199,0.0204,0.021,0.0267,0.0341,0.0352,0.0215,0.0215,0.0215,0.0216,0.0216,0.01,0.0105,0.0122,0.0135,0.0153,0.0171,0.0198,0.0204,0.0247,0.022,0.0263,0.0321,0.0367,0.0216,0.0216,0.0216,0.0216,0.0216,0.0216,0.0089,0.0095,0.0106,0.0126,0.0141,0.0165,0.0198,0.0207,0.0255,0.0281,0.0407,0.0408,0.0291,0.0324,0.0324,0.0324,0.0325,0.0325,0.0325,0.0073,0.0088,0.0089,0.0111,0.0116,0.0137,0.0192,0.026,0.0388,0.0429,0.0431,0.0305,0.0301,0.0299,0.033,0.0329,0.0328,0.0328,0.0327,0.0061,0.0066,0.0064,0.0065,0.0085,0.0161,0.0225,0.046,0.0531,0.065,0.0536,0.0529,0.0551,0.0542,0.0546,0.0639,0.0639,0.0639,0.0639,0.0046,0.0051,0.0033,0.0026,0.0061,0.0158,0.0411,0.0594,0.0707,0.0679,0.0676,0.0654,0.0643,0.0666,0.0654,0.0658,0.0781,0.078,0.078,0.0035,0.0027,0.0004,0.0001,0.0042,0.0209,0.0509,0.0689,0.0693,0.0775,0.0588,0.0671,0.0631,0.0616,0.0645,0.0628,0.0632,0,0]}],[{"header":{"parameterUnit":"m.s-1","parameterCategory":2,"la1":30.2992,"la2":30.254,"lo1":-89.0895,"lo2":-89.0443,"dy":0.0025,"dx":0.0025,"nx":19,"ny":19,"refTime":"2026-03-26T09:00:00:Z","depth":"4","parameterNumber":2,"parameterNumberName":"U-component_of_CURRENTS"},"data":[0,0,0,-0.005,-0.0049,0.0025,0.0025,0.0074,0.0074,0,0,0,0,0,0,0,0,0,0,0,-0.0069,-0.0068,-0.005,-0.0049,0.0024,0.0025,0.0074,0.0074,0,0,0,0,0,0,0,0,0,0,0,-0.0069,-0.0068,-0.0068,-0.0048,0.0024,0.0025,0.0074,0.0031,0,0,0,0,0,0,0,0,0,0,-0.0034,-0.0052,-0.0068,-0.0067,-0.0048,0.0024,0.0025,0.0029,0.0034,0.0026,0,0.0042,0,0.0053,0.0076,0.0076,0,0,0,-0.0043,-0.0055,-0.0032,-0.0067,-0.0047,0.0024,-0.0007,0.0032,0.0037,0.0031,0.0043,0.0045,0.0054,0.0076,0.0076,0.0098,0.0098,0,0,-0.0047,-0.006,-0.0035,-0.0029,-0.0023,-0.0009,-0.0005,0.0036,0.004,0.0043,0.0047,0.0055,0.0076,0.0076,0.0098,0.0098,0,0,0,-0.0062,-0.0062,-0.004,-0.0032,-0.0018,-0.0007,-0.0002,0.0038,0.0047,0.0047,0.0055,0.0076,0.0077,0.0098,0.0098,0.0089,0,0,0,-0.0065,-0.0072,-0.0042,-0.0049,-0.0018,0.0015,-0.0001,0.0044,0.0049,0.0055,0.0076,0.0077,0.0098,0.0098,0.0089,0.0058,0,0,0,-0.0073,-0.0073,-0.0062,-0.005,-0.0021,0.0015,0.0027,0.0046,0.0053,0.0076,0.0077,0.0098,0.0098,0.0089,0.0059,0.0033,0,0,0,-0.0092,-0.008,-0.0062,-0.005,-0.0022,0.0012,0.0027,0.0058,0.0078,0.0076,0.0098,0.0098,0.0089,0.006,0.0034,-0.0,0,0,0,-0.0091,-0.008,-0.0075,-0.0057,-0.0024,0.0002,0.0019,0.0055,0.0075,0.0083,0.0084,0.0089,0.0059,0.0033,0.0007,0,0,0,0,-0.0085,-0.0073,-0.0061,-0.0038,-0.0012,0.0008,0.0043,0.0053,0.0081,0.0086,0.0094,0.0075,0.0059,0.0043,0.0099,0.0099,0.0099,0.0099,0.0099,-0.009,-0.0076,-0.0063,-0.0037,-0.0024,0.0014,0.0027,0.0046,0.0071,0.0084,0.0072,0.0049,0.0034,0.0092,0.0092,0.0092,0.0092,0.0092,0.0092,-0.0091,-0.0092,-0.0077,-0.0058,-0.004,-0.0029,-0.0006,0.0022,0.0032,0.006,0.0046,0.004,0.0091,0.0091,0.0091,0.0091,0.0091,0.0091,0.0092,-0.0102,-0.0104,-0.0086,-0.0086,-0.0089,-0.0075,-0.0102,-0.0059,0.0,0.0004,-0.0022,0.0028,0.0021,-0.0001,-0.0001,-0.0001,-0.0001,-0.0001,-0.0002,-0.0128,-0.0112,-0.0125,-0.0124,-0.0155,-0.0184,-0.0167,-0.0161,-0.0105,-0.0061,-0.0011,0.0017,0.002,0.0015,-0.0005,-0.0005,-0.0004,-0.0004,-0.0004,-0.0139,-0.0137,-0.0181,-0.0206,-0.0279,-0.0298,-0.029,-0.0243,-0.0236,-0.02,-0.0092,-0.0086,-0.0096,-0.0091,-0.0099,-0.0155,-0.0156,-0.0156,0,-0.0159,-0.0155,-0.024,-0.0316,-0.0386,-0.0378,-0.0373,-0.0344,-0.025,-0.0228,-0.0234,-0.0114,-0.0109,-0.0121,-0.0117,-0.0129,0,0,0,-0.0167,-0.0205,-0.0279,-0.0353,-0.0432,-0.0405,-0.0371,-0.0337,-0.0261,-0.0258,-0.017,-0.0167,-0.0132,-0.0016,-0.0019,-0.0015,-0.0023,0,0]},{"header":{"parameterUnit":"m.s-1","parameterCategory":2,"la1":30.2992,"la2":30.254,"lo1":-89.0895,"lo2":-89.0443,"dy":0.0025,"dx":0.0025,"nx":19,"ny":19,"refTime":"2026-03-26T09:00:00:Z","depth":"4","parameterNumber":3,"parameterNumberName":"V-component_of_CURRENTS"},"data":[0,0,0,0.0209,0.0209,0.0216,0.0216,0.0231,0.0231,0,0,0,0,0,0,0,0,0,0,0,0.0209,0.0209,0.0209,0.0209,0.0216,0.0216,0.0231,0.0231,0,0,0,0,0,0,0,0,0,0,0,0.0209,0.0209,0.0209,0.0209,0.0216,0.0216,0.0231,0.0225,0,0,0,0,0,0,0,0,0,0,0.0217,0.0216,0.0209,0.0209,0.0209,0.0216,0.0216,0.0224,0.0225,0.023,0,0.0232,0,0.0231,0.0232,0.0232,0,0,0,0.021,0.0216,0.0216,0.0209,0.0209,0.0216,0.0213,0.0225,0.0225,0.0231,0.0232,0.0232,0.0231,0.0232,0.0232,0.0256,0.0256,0,0,0.021,0.0211,0.0216,0.0217,0.0213,0.0213,0.0213,0.0225,0.0227,0.0232,0.0233,0.0231,0.0232,0.0233,0.0256,0.0256,0,0,0,0.0208,0.0211,0.0211,0.0216,0.0217,0.0213,0.0214,0.0227,0.0227,0.0233,0.0232,0.0233,0.0233,0.0255,0.0256,0.0274,0,0,0,0.0208,0.021,0.0211,0.0212,0.0216,0.0221,0.0215,0.0226,0.0227,0.0231,0.0233,0.0233,0.0255,0.0256,0.0274,0.0293,0,0,0,0.0208,0.021,0.0211,0.0212,0.0214,0.0221,0.0221,0.0226,0.0227,0.0232,0.0233,0.0255,0.0256,0.0273,0.0291,0.033,0,0,0,0.0209,0.0205,0.0211,0.021,0.0214,0.0218,0.0221,0.0226,0.0231,0.0233,0.0255,0.0256,0.0273,0.029,0.0328,0.0267,0,0,0,0.0202,0.0204,0.0204,0.0209,0.0208,0.0217,0.0227,0.0234,0.0238,0.0252,0.0252,0.0274,0.0291,0.033,0.0286,0,0,0,0,0.02,0.0199,0.02,0.0203,0.021,0.0228,0.0232,0.0245,0.0264,0.0243,0.0275,0.0286,0.0309,0.0269,0.0257,0.0257,0.0257,0.0257,0.0257,0.0189,0.0193,0.0192,0.0199,0.021,0.0233,0.0256,0.0275,0.027,0.0286,0.0302,0.0345,0.0301,0.0296,0.0296,0.0296,0.0296,0.0296,0.0296,0.0173,0.0166,0.0187,0.0186,0.0213,0.0232,0.0282,0.0296,0.0344,0.0325,0.0346,0.0291,0.0298,0.0298,0.0297,0.0297,0.0297,0.0297,0.0297,0.0156,0.015,0.016,0.017,0.021,0.0248,0.0319,0.0354,0.037,0.0394,0.0364,0.0371,0.037,0.0408,0.0408,0.0409,0.0409,0.0409,0.0409,0.0124,0.0132,0.014,0.0161,0.0199,0.0259,0.0356,0.0395,0.0418,0.0392,0.0409,0.0383,0.038,0.0377,0.0413,0.0412,0.0412,0.0412,0.0411,0.008,0.0095,0.0115,0.0147,0.0233,0.0279,0.037,0.0416,0.0455,0.0435,0.0394,0.0394,0.0389,0.0386,0.0383,0.0423,0.0422,0.0421,0,0.0053,0.0058,0.0116,0.019,0.0253,0.0312,0.0354,0.0393,0.0401,0.0382,0.0445,0.0398,0.0397,0.039,0.0386,0.0382,0,0,0,0.0025,0.0058,0.0109,0.0197,0.0283,0.0322,0.0367,0.0372,0.0386,0.0395,0.0406,0.041,0.0411,0.0425,0.0418,0.0413,0.041,0,0]}]]